铱星星座 51星 (IRIDIUM 51)

导读

IRIDIUM 51(铱星51)是美国1998年3月25日发射的低轨通信卫星,属于铱星计划星座。铱星系统旨在实现全球无缝卫星通信,该卫星入轨后,为手持终端提供跨极地、远海等无地面网络区域的语音通信服务,支撑了早期全球个人卫星通信网络的构建,至今仍承担部分在轨通信任务。

基本信息
目录编号:
25262
目录名称:
IRIDIUM 51
国际标识:
1998-018A
轨道中心:
EARTH
卫星名称:
铱星星座 51星
卫星全名:
铱星星座 51星 (IRIDIUM 51)
卫星状态:
已陨落 最后检测时间 2026-03-14
发射日期:
1998-03-25 UTC
国别 :
美国 (US)
星等 :
--
轨道信息
数据来源 国际轨道数据
星历时间: 2026-03-14T15:27:59+0800
轨道信息已过期90天
半长轴: 6535.047km
偏心率: 0.0012738
轨道倾角: 86.332°
近地点辐角 253.595°
升交点赤经 277.881°
平近点角 106.396°
近地点: 148.585km
远地点: 165.235km
周期: 87.626分钟
每日圈数: 16.433488
详细信息
平衡模式:
三轴稳定
覆盖范围:
全球
运营商:
铱星通信公司
运营商所在国:
美国
使用方式:
暂无
卫星简介
铱星(Iridium)是由共66个运作中的通信卫星组成的卫星通信系统。这个系统原本规划77个通信卫星,所以用原子序数为77的铱元素来命名。铱卫星允许人们使用手持型电子设备进行全球性的语音及数据通讯。该卫星已退役。